| time (UTC) | temp C | wind direction | speed KPH | gust KPH | rain 1hr cm | rain 24hr cm | rain mn cm | humidity % | barometer mb |
| 20260509224534 | 30 | 0 | 0.0 | 3.2 | 0.00 | 0.00 | 0.00 | 73 | 1006.9 |
| 20260509224015 | 30 | 0 | 0.0 | 3.2 | 0.00 | 0.00 | 0.00 | 72 | 1006.9 |
| 20260509223516 | 30 | 0 | 0.0 | 3.2 | 0.00 | 0.00 | 0.00 | 71 | 1006.8 |
| 20260509223034 | 31 | 0 | 0.0 | 3.2 | 0.00 | 0.00 | 0.00 | 70 | 1006.9 |
| 20260509222515 | 31 | 0 | 0.0 | 3.2 | 0.00 | 0.00 | 0.00 | 69 | 1006.7 |
| 20260509222015 | 31 | 44 | 0.0 | 3.2 | 0.00 | 0.00 | 0.00 | 68 | 1006.6 |
| 20260509221600 | 32 | 0 | 0.0 | 1.6 | 0.00 | 0.00 | 0.00 | 68 | 1006.6 |
| 20260509221015 | 32 | 0 | 0.0 | 1.6 | 0.00 | 0.00 | 0.00 | 67 | 1006.5 |
| 20260509220516 | 32 | 0 | 0.0 | 1.6 | 0.00 | 0.00 | 0.00 | 68 | 1006.7 |
| 20260509220036 | 31 | 0 | 0.0 | 0.0 | 0.00 | 0.00 | 0.00 | 72 | 1006.7 |
| 20260509215516 | 31 | 0 | 0.0 | 0.0 | 0.00 | 0.00 | 0.00 | 74 | 1006.7 |
| 20260509215019 | 31 | 0 | 0.0 | 0.0 | 0.00 | 0.00 | 0.00 | 73 | 1006.7 |
| 20260509214536 | 31 | 0 | 0.0 | 0.0 | 0.00 | 0.00 | 0.00 | 70 | 1006.8 |
| 20260509214015 | 31 | 0 | 0.0 | 0.0 | 0.00 | 0.00 | 0.00 | 69 | 1006.7 |
| 20260509213518 | 32 | 0 | 0.0 | 1.6 | 0.00 | 0.00 | 0.00 | 70 | 1006.8 |
| 20260509213035 | 31 | 0 | 0.0 | 1.6 | 0.00 | 0.00 | 0.00 | 69 | 1006.7 |
| 20260509212521 | 31 | 0 | 0.0 | 1.6 | 0.00 | 0.00 | 0.00 | 70 | 1006.7 |
| 20260509212015 | 30 | 0 | 0.0 | 3.2 | 0.00 | 0.00 | 0.00 | 72 | 1006.7 |
| 20260509211545 | 30 | 0 | 0.0 | 3.2 | 0.00 | 0.00 | 0.00 | 75 | 1006.8 |
| 20260509211018 | 30 | 0 | 0.0 | 0.0 | 0.00 | 0.00 | 0.00 | 75 | 1006.9 |
| 20260509210519 | 30 | 0 | 0.0 | 1.6 | 0.00 | 0.00 | 0.00 | 75 | 1006.9 |
| 20260509210034 | 29 | 0 | 0.0 | 1.6 | 0.00 | 0.00 | 0.00 | 74 | 1007.1 |
| 20260509205518 | 29 | 0 | 0.0 | 1.6 | 0.00 | 0.00 | 0.00 | 76 | 1007.2 |
| 20260509205015 | 30 | 0 | 0.0 | 1.6 | 0.00 | 0.00 | 0.00 | 74 | 1007.1 |
| 20260509204535 | 30 | 0 | 0.0 | 1.6 | 0.00 | 0.00 | 0.00 | 73 | 1007.3 |
| 20260509204019 | 30 | 0 | 0.0 | 0.0 | 0.00 | 0.00 | 0.00 | 73 | 1007.3 |
| 20260509203515 | 30 | 0 | 0.0 | 1.6 | 0.00 | 0.00 | 0.00 | 75 | 1007.3 |
| 20260509203041 | 30 | 0 | 0.0 | 1.6 | 0.00 | 0.00 | 0.00 | 73 | 1007.4 |
| 20260509202516 | 30 | 0 | 0.0 | 4.8 | 0.00 | 0.00 | 0.00 | 73 | 1007.4 |
| 20260509202016 | 30 | 0 | 0.0 | 4.8 | 0.00 | 0.00 | 0.00 | 73 | 1007.4 |
| 20260509201535 | 30 | 188 | 1.6 | 4.8 | 0.00 | 0.00 | 0.00 | 72 | 1007.4 |
| 20260509201021 | 30 | 0 | 0.0 | 6.4 | 0.00 | 0.00 | 0.00 | 72 | 1007.4 |
| 20260509200515 | 31 | 121 | 1.6 | 6.4 | 0.00 | 0.00 | 0.00 | 69 | 1007.4 |
| 20260509200044 | 31 | 0 | 0.0 | 3.2 | 0.00 | 0.00 | 0.00 | 71 | 1007.5 |
| 20260509195520 | 31 | 0 | 0.0 | 3.2 | 0.00 | 0.00 | 0.00 | 70 | 1007.5 |
| 20260509195015 | 30 | 0 | 0.0 | 3.2 | 0.00 | 0.00 | 0.00 | 72 | 1007.6 |
| 20260509194538 | 30 | 0 | 0.0 | 3.2 | 0.00 | 0.00 | 0.00 | 71 | 1007.7 |
| 20260509194016 | 30 | 5 | 0.0 | 4.8 | 0.00 | 0.00 | 0.00 | 77 | 1007.6 |
| 20260509193521 | 30 | 0 | 0.0 | 4.8 | 0.00 | 0.00 | 0.00 | 73 | 1007.8 |
| 20260509193044 | 30 | 338 | 0.0 | 4.8 | 0.00 | 0.00 | 0.00 | 74 | 1007.9 |
| 20260509192516 | 30 | 258 | 0.0 | 1.6 | 0.00 | 0.00 | 0.00 | 75 | 1007.9 |
| 20260509192027 | 30 | 0 | 0.0 | 3.2 | 0.00 | 0.00 | 0.00 | 74 | 1007.9 |
| 20260509191548 | 30 | 0 | 0.0 | 3.2 | 0.00 | 0.00 | 0.00 | 74 | 1007.9 |
| 20260509191019 | 30 | 0 | 0.0 | 3.2 | 0.00 | 0.00 | 0.00 | 73 | 1007.9 |
| 20260509190521 | 30 | 0 | 0.0 | 4.8 | 0.00 | 0.00 | 0.00 | 74 | 1007.9 |
| 20260509190044 | 30 | 0 | 0.0 | 4.8 | 0.00 | 0.00 | 0.00 | 74 | 1008.1 |
| 20260509185518 | 30 | 11 | 1.6 | 6.4 | 0.00 | 0.00 | 0.00 | 74 | 1008.2 |
| 20260509185016 | 29 | 0 | 1.6 | 6.4 | 0.00 | 0.00 | 0.00 | 73 | 1008.3 |
| 20260509184541 | 29 | 206 | 1.6 | 3.2 | 0.00 | 0.00 | 0.00 | 77 | 1008.4 |
| 20260509184015 | 29 | 0 | 0.0 | 6.4 | 0.00 | 0.00 | 0.00 | 75 | 1008.5 |
| 20260509183516 | 29 | 0 | 0.0 | 11.3 | 0.00 | 0.00 | 0.00 | 74 | 1008.4 |
| 20260509183043 | 29 | 76 | 1.6 | 11.3 | 0.00 | 0.00 | 0.00 | 73 | 1008.5 |
| 20260509182518 | 30 | 147 | 4.8 | 11.3 | 0.00 | 0.00 | 0.00 | 73 | 1008.5 |
| 20260509182019 | 30 | 173 | 3.2 | 11.3 | 0.00 | 0.00 | 0.00 | 73 | 1008.6 |
| 20260509181542 | 29 | 107 | 1.6 | 6.4 | 0.00 | 0.00 | 0.00 | 74 | 1008.8 |
| 20260509181030 | 29 | 129 | 0.0 | 4.8 | 0.00 | 0.00 | 0.00 | 77 | 1008.8 |
| 20260509180515 | 28 | 179 | 0.0 | 3.2 | 0.00 | 0.00 | 0.00 | 76 | 1008.8 |
| 20260509180037 | 28 | 0 | 0.0 | 3.2 | 0.00 | 0.00 | 0.00 | 77 | 1008.8 |
| 20260509175515 | 29 | 155 | 0.0 | 3.2 | 0.00 | 0.00 | 0.00 | 76 | 1009.0 |
| 20260509175023 | 28 | 0 | 0.0 | 3.2 | 0.00 | 0.00 | 0.00 | 78 | 1009.0 |
| 20260509174535 | 28 | 0 | 0.0 | 3.2 | 0.00 | 0.00 | 0.00 | 79 | 1009.0 |
| 20260509174018 | 28 | 0 | 0.0 | 3.2 | 0.00 | 0.00 | 0.00 | 79 | 1009.0 |
| 20260509173518 | 28 | 0 | 0.0 | 3.2 | 0.00 | 0.00 | 0.00 | 79 | 1009.1 |
| 20260509173050 | 28 | 0 | 0.0 | 3.2 | 0.00 | 0.00 | 0.00 | 77 | 1009.1 |
| 20260509172519 | 28 | 0 | 0.0 | 3.2 | 0.00 | 0.00 | 0.00 | 78 | 1009.1 |
| 20260509172019 | 28 | 0 | 0.0 | 3.2 | 0.00 | 0.00 | 0.00 | 79 | 1009.1 |
| 20260509171541 | 28 | 162 | 0.0 | 3.2 | 0.00 | 0.00 | 0.00 | 78 | 1009.1 |
| 20260509171015 | 28 | 0 | 0.0 | 3.2 | 0.00 | 0.00 | 0.00 | 79 | 1009.1 |
| 20260509170518 | 28 | 0 | 0.0 | 4.8 | 0.00 | 0.00 | 0.00 | 79 | 1009.2 |
| 20260509170040 | 28 | 0 | 0.0 | 4.8 | 0.00 | 0.00 | 0.00 | 81 | 1009.3 |
| 20260509165518 | 28 | 355 | 0.0 | 4.8 | 0.00 | 0.00 | 0.00 | 81 | 1009.4 |
| 20260509165015 | 27 | 0 | 0.0 | 4.8 | 0.00 | 0.00 | 0.00 | 81 | 1009.4 |
| 20260509164547 | 27 | 0 | 0.0 | 4.8 | 0.00 | 0.00 | 0.00 | 80 | 1009.3 |
| 20260509164019 | 27 | 346 | 0.0 | 4.8 | 0.00 | 0.00 | 0.00 | 83 | 1009.3 |
| 20260509163516 | 27 | 0 | 0.0 | 3.2 | 0.00 | 0.00 | 0.00 | 85 | 1009.2 |
| 20260509163047 | 27 | 0 | 0.0 | 3.2 | 0.00 | 0.00 | 0.00 | 83 | 1009.2 |
| 20260509162516 | 26 | 244 | 1.6 | 3.2 | 0.00 | 0.00 | 0.00 | 84 | 1009.5 |
| 20260509162022 | 26 | 0 | 0.0 | 3.2 | 0.00 | 0.00 | 0.00 | 84 | 1009.6 |
| 20260509161535 | 26 | 0 | 0.0 | 3.2 | 0.00 | 0.00 | 0.00 | 84 | 1009.4 |
| 20260509161018 | 26 | 246 | 0.0 | 3.2 | 0.00 | 0.00 | 0.00 | 85 | 1009.5 |
| 20260509160516 | 26 | 286 | 0.0 | 9.7 | 0.00 | 0.00 | 0.00 | 88 | 1009.5 |
| 20260509160032 | 26 | 355 | 1.6 | 9.7 | 0.00 | 0.00 | 0.00 | 88 | 1009.4 |
| 20260509155515 | 26 | 168 | 1.6 | 6.4 | 0.00 | 0.00 | 0.00 | 87 | 1009.4 |
| 20260509155021 | 26 | 0 | 0.0 | 6.4 | 0.00 | 0.00 | 0.00 | 88 | 1009.5 |
| 20260509154542 | 25 | 239 | 3.2 | 8.0 | 0.00 | 0.00 | 0.00 | 89 | 1009.4 |
| 20260509154019 | 25 | 180 | 1.6 | 9.7 | 0.00 | 0.00 | 0.00 | 90 | 1009.4 |
| 20260509153515 | 25 | 144 | 3.2 | 9.7 | 0.00 | 0.00 | 0.00 | 90 | 1009.5 |
| 20260509153039 | 25 | 0 | 1.6 | 9.7 | 0.00 | 0.00 | 0.00 | 90 | 1009.6 |
| 20260509152519 | 25 | 173 | 3.2 | 9.7 | 0.00 | 0.00 | 0.00 | 90 | 1009.4 |
| 20260509152016 | 24 | 240 | 0.0 | 3.2 | 0.00 | 0.00 | 0.00 | 91 | 1009.4 |
| 20260509151538 | 24 | 157 | 0.0 | 3.2 | 0.00 | 0.00 | 0.00 | 91 | 1009.4 |
| 20260509151019 | 24 | 157 | 0.0 | 4.8 | 0.00 | 0.00 | 0.00 | 92 | 1009.5 |
| 20260509150517 | 24 | 0 | 0.0 | 4.8 | 0.00 | 0.00 | 0.00 | 92 | 1009.4 |
| 20260509150035 | 24 | 126 | 0.0 | 4.8 | 0.00 | 0.00 | 0.00 | 93 | 1009.5 |
| 20260509145516 | 24 | 0 | 0.0 | 4.8 | 0.00 | 0.00 | 0.00 | 93 | 1009.4 |
| 20260509145018 | 23 | 0 | 1.6 | 4.8 | 0.00 | 0.00 | 0.00 | 93 | 1009.3 |
| 20260509144544 | 23 | 0 | 0.0 | 4.8 | 0.00 | 0.00 | 0.00 | 94 | 1009.3 |
| 20260509144016 | 23 | 0 | 0.0 | 0.0 | 0.00 | 0.00 | 0.00 | 94 | 1009.1 |
| 20260509143516 | 23 | 0 | 0.0 | 0.0 | 0.00 | 0.00 | 0.00 | 94 | 1009.2 |
| 20260509143035 | 23 | 0 | 0.0 | 0.0 | 0.00 | 0.00 | 0.00 | 95 | 1009.1 |
| 20260509142515 | 23 | 0 | 0.0 | 0.0 | 0.00 | 0.00 | 0.00 | 95 | 1009.0 |
| 20260509142021 | 23 | 0 | 0.0 | 0.0 | 0.00 | 0.00 | 0.00 | 95 | 1008.9 |
| 20260509141546 | 23 | 0 | 0.0 | 0.0 | 0.00 | 0.00 | 0.00 | 95 | 1008.7 |
| 20260509141016 | 23 | 0 | 0.0 | 0.0 | 0.00 | 0.00 | 0.00 | 95 | 1008.8 |
| 20260509140515 | 23 | 0 | 0.0 | 0.0 | 0.00 | 0.00 | 0.00 | 95 | 1008.7 |
| 20260509140035 | 23 | 0 | 0.0 | 1.6 | 0.00 | 0.00 | 0.00 | 95 | 1009.0 |
| 20260509135520 | 23 | 0 | 0.0 | 1.6 | 0.00 | 0.00 | 0.00 | 95 | 1009.0 |
| 20260509135020 | 23 | 0 | 0.0 | 0.0 | 0.00 | 0.00 | 0.00 | 95 | 1009.2 |
| 20260509134549 | 23 | 0 | 0.0 | 0.0 | 0.00 | 0.00 | 0.00 | 96 | 1009.3 |
| 20260509134016 | 23 | 0 | 0.0 | 0.0 | 0.00 | 0.00 | 0.00 | 96 | 1009.1 |
| 20260509133516 | 23 | 0 | 0.0 | 0.0 | 0.00 | 0.00 | 0.00 | 96 | 1009.3 |
| 20260509133037 | 23 | 0 | 0.0 | 0.0 | 0.00 | 0.00 | 0.00 | 96 | 1009.4 |
| 20260509132515 | 23 | 0 | 0.0 | 0.0 | 0.00 | 0.00 | 0.00 | 96 | 1009.3 |
| 20260509132015 | 23 | 0 | 0.0 | 0.0 | 0.00 | 0.00 | 0.00 | 96 | 1009.4 |
| 20260509131552 | 23 | 0 | 0.0 | 0.0 | 0.00 | 0.00 | 0.00 | 96 | 1009.4 |
| 20260509131015 | 23 | 0 | 0.0 | 0.0 | 0.00 | 0.00 | 0.00 | 96 | 1009.4 |
| 20260509130518 | 22 | 0 | 0.0 | 0.0 | 0.00 | 0.00 | 0.00 | 96 | 1009.4 |
| 20260509130047 | 22 | 0 | 0.0 | 0.0 | 0.00 | 0.00 | 0.00 | 96 | 1009.3 |
| 20260509125516 | 22 | 0 | 0.0 | 0.0 | 0.00 | 0.00 | 0.00 | 96 | 1009.4 |
| 20260509125022 | 22 | 0 | 0.0 | 0.0 | 0.00 | 0.00 | 0.00 | 96 | 1009.4 |
| 20260509124544 | 22 | 0 | 0.0 | 0.0 | 0.00 | 0.00 | 0.00 | 96 | 1009.4 |
| 20260509124018 | 22 | 0 | 0.0 | 0.0 | 0.00 | 0.00 | 0.00 | 96 | 1009.3 |
| 20260509123518 | 22 | 0 | 0.0 | 0.0 | 0.00 | 0.00 | 0.00 | 96 | 1009.4 |
| 20260509123048 | 22 | 0 | 0.0 | 0.0 | 0.00 | 0.00 | 0.00 | 96 | 1009.4 |
| 20260509122516 | 22 | 0 | 0.0 | 0.0 | 0.00 | 0.00 | 0.00 | 96 | 1009.3 |
| 20260509122018 | 22 | 0 | 0.0 | 0.0 | 0.00 | 0.00 | 0.00 | 96 | 1009.2 |
| 20260509121537 | 22 | 0 | 0.0 | 0.0 | 0.00 | 0.00 | 0.00 | 96 | 1009.2 |
| 20260509121019 | 22 | 0 | 0.0 | 0.0 | 0.00 | 0.00 | 0.00 | 96 | 1009.1 |
| 20260509120519 | 22 | 0 | 0.0 | 0.0 | 0.00 | 0.00 | 0.00 | 96 | 1009.1 |
| 20260509120034 | 22 | 0 | 0.0 | 0.0 | 0.00 | 0.00 | 0.00 | 96 | 1009.2 |
| 20260509115515 | 22 | 0 | 0.0 | 0.0 | 0.00 | 0.03 | 0.00 | 96 | 1009.1 |
| 20260509115021 | 22 | 0 | 0.0 | 4.8 | 0.00 | 0.03 | 0.00 | 96 | 1008.9 |
| 20260509114543 | 22 | 0 | 0.0 | 4.8 | 0.00 | 0.03 | 0.00 | 96 | 1008.8 |
| 20260509114016 | 22 | 117 | 1.6 | 4.8 | 0.00 | 0.03 | 0.00 | 96 | 1008.7 |
| 20260509113516 | 22 | 121 | 0.0 | 4.8 | 0.00 | 0.03 | 0.00 | 96 | 1008.5 |
| 20260509113038 | 22 | 0 | 0.0 | 3.2 | 0.00 | 0.03 | 0.00 | 96 | 1008.6 |
| 20260509112519 | 22 | 0 | 0.0 | 0.0 | 0.00 | 0.03 | 0.00 | 95 | 1008.6 |
| 20260509112016 | 22 | 0 | 0.0 | 0.0 | 0.00 | 0.03 | 0.00 | 95 | 1008.6 |
| 20260509111535 | 22 | 0 | 0.0 | 0.0 | 0.00 | 0.03 | 0.00 | 95 | 1008.5 |
| 20260509111020 | 22 | 0 | 0.0 | 0.0 | 0.00 | 0.03 | 0.00 | 95 | 1008.6 |
| 20260509110516 | 22 | 0 | 0.0 | 0.0 | 0.00 | 0.03 | 0.00 | 95 | 1008.7 |
| 20260509110039 | 22 | 0 | 0.0 | 0.0 | 0.00 | 0.03 | 0.00 | 95 | 1008.7 |
| 20260509105516 | 22 | 0 | 0.0 | 0.0 | 0.00 | 0.03 | 0.00 | 95 | 1008.7 |
| 20260509105019 | 22 | 0 | 0.0 | 0.0 | 0.00 | 0.03 | 0.00 | 95 | 1008.4 |
| 20260509104542 | 22 | 0 | 0.0 | 0.0 | 0.00 | 0.03 | 0.00 | 95 | 1008.5 |
| 20260509104015 | 22 | 0 | 0.0 | 1.6 | 0.00 | 0.03 | 0.00 | 95 | 1008.8 |
| 20260509103515 | 22 | 0 | 0.0 | 3.2 | 0.00 | 0.03 | 0.00 | 95 | 1009.0 |
| 20260509103041 | 22 | 0 | 0.0 | 3.2 | 0.00 | 0.03 | 0.00 | 95 | 1009.0 |
| 20260509102520 | 22 | 0 | 0.0 | 0.0 | 0.00 | 0.03 | 0.00 | 95 | 1008.8 |
| 20260509102020 | 22 | 0 | 0.0 | 0.0 | 0.00 | 0.03 | 0.00 | 95 | 1008.8 |
| 20260509101538 | 22 | 0 | 0.0 | 0.0 | 0.00 | 0.03 | 0.00 | 95 | 1008.7 |
| 20260509101016 | 22 | 0 | 0.0 | 0.0 | 0.00 | 0.03 | 0.00 | 95 | 1008.5 |
| 20260509100517 | 22 | 0 | 0.0 | 0.0 | 0.00 | 0.03 | 0.00 | 95 | 1008.5 |
| 20260509100038 | 22 | 0 | 0.0 | 0.0 | 0.00 | 0.03 | 0.00 | 95 | 1008.5 |
| 20260509095515 | 22 | 0 | 0.0 | 0.0 | 0.00 | 0.03 | 0.00 | 95 | 1008.3 |
| 20260509095016 | 22 | 0 | 0.0 | 0.0 | 0.00 | 0.03 | 0.00 | 95 | 1008.1 |
| 20260509094534 | 22 | 0 | 0.0 | 0.0 | 0.00 | 0.03 | 0.00 | 95 | 1008.2 |
| 20260509094016 | 22 | 0 | 0.0 | 0.0 | 0.00 | 0.03 | 0.00 | 95 | 1008.3 |
| 20260509093520 | 22 | 0 | 0.0 | 0.0 | 0.00 | 0.03 | 0.00 | 95 | 1008.3 |
| 20260509093035 | 22 | 0 | 0.0 | 0.0 | 0.00 | 0.03 | 0.00 | 95 | 1008.3 |
| 20260509092518 | 22 | 0 | 0.0 | 0.0 | 0.00 | 0.03 | 0.00 | 95 | 1008.5 |
| 20260509092016 | 22 | 0 | 0.0 | 0.0 | 0.00 | 0.03 | 0.00 | 95 | 1008.6 |
| 20260509091538 | 22 | 0 | 0.0 | 0.0 | 0.00 | 0.03 | 0.00 | 95 | 1008.6 |
| 20260509091019 | 22 | 0 | 0.0 | 0.0 | 0.00 | 0.03 | 0.00 | 95 | 1008.5 |
| 20260509090517 | 22 | 0 | 0.0 | 0.0 | 0.00 | 0.03 | 0.00 | 96 | 1008.7 |
| 20260509090035 | 22 | 0 | 0.0 | 0.0 | 0.00 | 0.03 | 0.00 | 95 | 1008.7 |
| 20260509085517 | 22 | 0 | 0.0 | 0.0 | 0.00 | 0.03 | 0.00 | 96 | 1008.7 |
| 20260509085016 | 22 | 0 | 0.0 | 0.0 | 0.00 | 0.03 | 0.00 | 95 | 1008.7 |
| 20260509084539 | 22 | 0 | 0.0 | 0.0 | 0.00 | 0.03 | 0.00 | 95 | 1008.8 |
| 20260509084016 | 22 | 0 | 0.0 | 0.0 | 0.00 | 0.03 | 0.00 | 95 | 1008.7 |
| 20260509083521 | 22 | 0 | 0.0 | 0.0 | 0.00 | 0.03 | 0.00 | 95 | 1008.7 |
| 20260509083043 | 22 | 0 | 0.0 | 0.0 | 0.00 | 0.03 | 0.00 | 95 | 1008.6 |
| 20260509082516 | 22 | 0 | 0.0 | 0.0 | 0.00 | 0.03 | 0.00 | 95 | 1008.8 |
| 20260509082016 | 22 | 0 | 0.0 | 0.0 | 0.00 | 0.03 | 0.00 | 95 | 1008.7 |
| 20260509081541 | 22 | 0 | 0.0 | 0.0 | 0.00 | 0.03 | 0.00 | 96 | 1008.8 |
| 20260509081021 | 22 | 0 | 0.0 | 0.0 | 0.00 | 0.03 | 0.00 | 96 | 1008.9 |
| 20260509080515 | 22 | 0 | 0.0 | 0.0 | 0.00 | 0.03 | 0.00 | 96 | 1008.8 |
| 20260509080032 | 22 | 0 | 0.0 | 0.0 | 0.00 | 0.03 | 0.00 | 95 | 1008.8 |
| 20260509075517 | 22 | 0 | 0.0 | 0.0 | 0.00 | 0.03 | 0.00 | 96 | 1008.8 |
| 20260509075016 | 22 | 0 | 0.0 | 0.0 | 0.00 | 0.03 | 0.00 | 95 | 1008.8 |
| 20260509074540 | 22 | 0 | 0.0 | 0.0 | 0.00 | 0.03 | 0.00 | 95 | 1008.7 |
| 20260509074016 | 22 | 0 | 0.0 | 0.0 | 0.00 | 0.03 | 0.00 | 95 | 1008.6 |
| 20260509073516 | 22 | 0 | 0.0 | 0.0 | 0.00 | 0.03 | 0.00 | 95 | 1008.4 |
| 20260509073037 | 22 | 0 | 0.0 | 0.0 | 0.00 | 0.03 | 0.00 | 95 | 1008.5 |
| 20260509072525 | 22 | 0 | 0.0 | 1.6 | 0.00 | 0.03 | 0.00 | 95 | 1008.5 |
| 20260509072023 | 22 | 0 | 0.0 | 1.6 | 0.00 | 0.03 | 0.00 | 95 | 1008.5 |
| 20260509071538 | 22 | 0 | 0.0 | 4.8 | 0.00 | 0.03 | 0.00 | 95 | 1008.5 |
| 20260509071016 | 22 | 0 | 0.0 | 4.8 | 0.00 | 0.03 | 0.00 | 95 | 1008.6 |
| 20260509070516 | 22 | 0 | 0.0 | 4.8 | 0.00 | 0.03 | 0.00 | 95 | 1008.7 |
| 20260509070035 | 22 | 198 | 0.0 | 4.8 | 0.00 | 0.03 | 0.00 | 95 | 1008.6 |
| 20260509065515 | 22 | 0 | 0.0 | 6.4 | 0.00 | 0.03 | 0.00 | 95 | 1008.7 |
| 20260509065019 | 22 | 168 | 1.6 | 6.4 | 0.00 | 0.03 | 0.00 | 95 | 1008.6 |
| 20260509064538 | 22 | 0 | 1.6 | 6.4 | 0.00 | 0.03 | 0.00 | 95 | 1008.6 |
| 20260509064022 | 22 | 163 | 1.6 | 6.4 | 0.00 | 0.03 | 0.00 | 95 | 1008.5 |
| 20260509063516 | 22 | 211 | 1.6 | 6.4 | 0.00 | 0.03 | 0.00 | 95 | 1008.5 |
| 20260509063040 | 22 | 150 | 0.0 | 8.0 | 0.00 | 0.03 | 0.00 | 95 | 1008.5 |
| 20260509062516 | 22 | 0 | 1.6 | 8.0 | 0.00 | 0.03 | 0.00 | 95 | 1008.6 |
| 20260509062017 | 22 | 180 | 0.0 | 6.4 | 0.00 | 0.03 | 0.00 | 95 | 1008.7 |
| 20260509061537 | 22 | 0 | 0.0 | 6.4 | 0.00 | 0.03 | 0.00 | 95 | 1008.6 |
| 20260509061016 | 22 | 142 | 1.6 | 6.4 | 0.00 | 0.03 | 0.00 | 95 | 1008.9 |
| 20260509060520 | 22 | 0 | 0.0 | 4.8 | 0.00 | 0.03 | 0.00 | 95 | 1009.0 |
| 20260509060036 | 22 | 0 | 0.0 | 3.2 | 0.00 | 0.03 | 0.00 | 95 | 1009.1 |
| 20260509055516 | 22 | 0 | 0.0 | 6.4 | 0.00 | 0.03 | 0.00 | 95 | 1009.2 |
| 20260509055016 | 22 | 0 | 0.0 | 6.4 | 0.00 | 0.03 | 0.00 | 95 | 1009.1 |
| 20260509054601 | 22 | 180 | 0.0 | 6.4 | 0.00 | 0.03 | 0.00 | 95 | 1009.2 |
| 20260509054018 | 22 | 180 | 1.6 | 4.8 | 0.00 | 0.03 | 0.00 | 95 | 1009.0 |
| 20260509053521 | 22 | 167 | 0.0 | 6.4 | 0.00 | 0.03 | 0.00 | 95 | 1009.0 |
| 20260509053135 | 22 | 0 | 1.6 | 6.4 | 0.00 | 0.03 | 0.00 | 95 | 1009.1 |
| 20260509052520 | 22 | 185 | 0.0 | 3.2 | 0.00 | 0.03 | 0.00 | 95 | 1009.1 |
| 20260509052019 | 22 | 0 | 0.0 | 3.2 | 0.00 | 0.03 | 0.00 | 95 | 1009.1 |
| 20260509051542 | 22 | 0 | 0.0 | 3.2 | 0.00 | 0.03 | 0.00 | 95 | 1009.3 |
| 20260509051016 | 22 | 175 | 0.0 | 4.8 | 0.00 | 0.03 | 0.00 | 95 | 1009.2 |
| 20260509050516 | 22 | 112 | 0.0 | 8.0 | 0.00 | 0.03 | 0.00 | 94 | 1009.1 |
| 20260509050045 | 22 | 165 | 1.6 | 8.0 | 0.00 | 0.03 | 0.00 | 95 | 1009.1 |
| 20260509045519 | 22 | 158 | 1.6 | 8.0 | 0.00 | 0.03 | 0.03 | 94 | 1009.3 |
| 20260509045018 | 22 | 0 | 0.0 | 8.0 | 0.00 | 0.03 | 0.03 | 95 | 1009.2 |
| 20260509044534 | 22 | 0 | 1.6 | 8.0 | 0.00 | 0.03 | 0.03 | 94 | 1009.1 |
| 20260509044020 | 22 | 147 | 1.6 | 6.4 | 0.00 | 0.03 | 0.03 | 94 | 1009.0 |
| 20260509043517 | 22 | 162 | 1.6 | 8.0 | 0.00 | 0.03 | 0.03 | 94 | 1009.0 |
| 20260509043035 | 22 | 125 | 1.6 | 8.0 | 0.00 | 0.03 | 0.03 | 94 | 1009.0 |
| 20260509042519 | 22 | 171 | 1.6 | 6.4 | 0.00 | 0.03 | 0.03 | 94 | 1008.9 |
| 20260509042019 | 22 | 156 | 0.0 | 6.4 | 0.00 | 0.03 | 0.03 | 94 | 1009.0 |
| 20260509041535 | 22 | 156 | 1.6 | 6.4 | 0.00 | 0.03 | 0.03 | 94 | 1009.1 |
| 20260509041017 | 22 | 173 | 1.6 | 4.8 | 0.00 | 0.03 | 0.03 | 94 | 1009.1 |
| 20260509040519 | 22 | 190 | 1.6 | 6.4 | 0.00 | 0.03 | 0.03 | 94 | 1009.1 |
| 20260509040037 | 22 | 0 | 0.0 | 6.4 | 0.00 | 0.03 | 0.03 | 94 | 1009.0 |
| 20260509035516 | 22 | 160 | 0.0 | 4.8 | 0.00 | 0.03 | 0.03 | 94 | 1009.0 |
| 20260509035016 | 22 | 0 | 0.0 | 12.9 | 0.00 | 0.03 | 0.03 | 94 | 1009.0 |
| 20260509034535 | 22 | 0 | 0.0 | 14.5 | 0.00 | 0.03 | 0.03 | 94 | 1009.0 |
| 20260509034017 | 22 | 0 | 1.6 | 14.5 | 0.00 | 0.03 | 0.03 | 94 | 1009.1 |
| 20260509033519 | 22 | 175 | 1.6 | 8.0 | 0.00 | 0.03 | 0.03 | 94 | 1009.2 |
| 20260509033032 | 22 | 200 | 1.6 | 6.4 | 0.00 | 0.03 | 0.03 | 94 | 1008.8 |
| 20260509032516 | 22 | 162 | 1.6 | 9.7 | 0.00 | 0.03 | 0.03 | 94 | 1008.9 |
| 20260509032018 | 22 | 192 | 3.2 | 9.7 | 0.00 | 0.03 | 0.03 | 93 | 1008.7 |
| 20260509031536 | 22 | 0 | 1.6 | 6.4 | 0.00 | 0.03 | 0.03 | 93 | 1008.8 |
| 20260509031017 | 22 | 192 | 1.6 | 6.4 | 0.00 | 0.03 | 0.03 | 93 | 1008.8 |
| 20260509030517 | 22 | 174 | 1.6 | 6.4 | 0.00 | 0.03 | 0.03 | 93 | 1008.8 |
| 20260509030042 | 22 | 0 | 0.0 | 4.8 | 0.00 | 0.03 | 0.03 | 93 | 1008.6 |
| 20260509025518 | 22 | 0 | 0.0 | 4.8 | 0.00 | 0.03 | 0.03 | 93 | 1008.4 |
| 20260509025016 | 22 | 0 | 0.0 | 6.4 | 0.00 | 0.03 | 0.03 | 93 | 1008.5 |
| 20260509024537 | 22 | 0 | 1.6 | 6.4 | 0.00 | 0.03 | 0.03 | 92 | 1008.3 |
| 20260509024019 | 22 | 128 | 0.0 | 6.4 | 0.00 | 0.03 | 0.03 | 92 | 1008.2 |
| 20260509023516 | 22 | 0 | 0.0 | 3.2 | 0.00 | 0.03 | 0.03 | 92 | 1008.3 |
| 20260509023045 | 22 | 0 | 0.0 | 3.2 | 0.00 | 0.03 | 0.03 | 92 | 1008.4 |
| 20260509022516 | 22 | 0 | 0.0 | 3.2 | 0.00 | 0.03 | 0.03 | 92 | 1008.5 |
| 20260509022019 | 22 | 0 | 0.0 | 3.2 | 0.00 | 0.03 | 0.03 | 91 | 1008.5 |
| 20260509021532 | 22 | 0 | 0.0 | 1.6 | 0.00 | 0.03 | 0.03 | 91 | 1008.4 |
| 20260509021018 | 22 | 0 | 0.0 | 3.2 | 0.00 | 0.03 | 0.03 | 91 | 1008.3 |
| 20260509020515 | 22 | 0 | 0.0 | 3.2 | 0.00 | 0.03 | 0.03 | 91 | 1008.4 |
| 20260509020041 | 22 | 177 | 0.0 | 6.4 | 0.00 | 0.03 | 0.03 | 90 | 1008.5 |
| 20260509015519 | 22 | 0 | 0.0 | 6.4 | 0.00 | 0.03 | 0.03 | 90 | 1008.5 |
| 20260509015019 | 22 | 0 | 0.0 | 9.7 | 0.00 | 0.03 | 0.03 | 89 | 1008.3 |
| 20260509014538 | 23 | 0 | 1.6 | 9.7 | 0.00 | 0.03 | 0.03 | 89 | 1008.4 |
| 20260509014018 | 23 | 206 | 1.6 | 4.8 | 0.00 | 0.03 | 0.03 | 89 | 1008.4 |
| 20260509013518 | 23 | 158 | 0.0 | 6.4 | 0.00 | 0.03 | 0.03 | 89 | 1008.4 |
| 20260509013034 | 23 | 0 | 1.6 | 6.4 | 0.00 | 0.03 | 0.03 | 89 | 1008.5 |
| 20260509012518 | 23 | 190 | 0.0 | 6.4 | 0.00 | 0.03 | 0.03 | 89 | 1008.2 |
| 20260509012026 | 23 | 0 | 0.0 | 6.4 | 0.00 | 0.03 | 0.03 | 89 | 1008.1 |
| 20260509011539 | 23 | 0 | 0.0 | 6.4 | 0.00 | 0.03 | 0.03 | 89 | 1008.0 |
| 20260509011020 | 23 | 163 | 0.0 | 6.4 | 0.00 | 0.03 | 0.03 | 88 | 1008.0 |
| 20260509010519 | 23 | 200 | 1.6 | 6.4 | 0.00 | 0.03 | 0.03 | 88 | 1008.0 |
| 20260509010035 | 23 | 0 | 1.6 | 6.4 | 0.00 | 0.03 | 0.03 | 88 | 1007.9 |
| 20260509005521 | 23 | 143 | 1.6 | 6.4 | 0.00 | 0.03 | 0.03 | 88 | 1007.8 |
| 20260509005019 | 23 | 192 | 1.6 | 4.8 | 0.00 | 0.03 | 0.03 | 88 | 1007.8 |
| 20260509004541 | 23 | 224 | 0.0 | 1.6 | 0.00 | 0.03 | 0.03 | 88 | 1007.9 |
| 20260509004019 | 23 | 0 | 0.0 | 4.8 | 0.00 | 0.03 | 0.03 | 88 | 1007.9 |
| 20260509003519 | 23 | 0 | 0.0 | 4.8 | 0.00 | 0.03 | 0.03 | 87 | 1008.0 |
| 20260509003054 | 23 | 82 | 0.0 | 4.8 | 0.00 | 0.03 | 0.03 | 87 | 1008.0 |
| 20260509002518 | 23 | 167 | 1.6 | 4.8 | 0.00 | 0.03 | 0.03 | 87 | 1008.1 |
| 20260509002018 | 23 | 0 | 0.0 | 4.8 | 0.00 | 0.03 | 0.03 | 87 | 1008.2 |
| 20260509001534 | 23 | 199 | 1.6 | 4.8 | 0.00 | 0.03 | 0.03 | 87 | 1008.1 |
| 20260509001019 | 23 | 113 | 0.0 | 6.4 | 0.00 | 0.03 | 0.03 | 87 | 1008.2 |
| 20260509000524 | 23 | 139 | 1.6 | 6.4 | 0.00 | 0.03 | 0.03 | 86 | 1008.1 |
| 20260509000044 | 24 | 0 | 1.6 | 6.4 | 0.00 | 0.03 | 0.03 | 86 | 1008.1 |
| 20260508235519 | 24 | 187 | 0.0 | 6.4 | 0.00 | 0.03 | 0.03 | 86 | 1008.2 |
| 20260508235018 | 24 | 0 | 0.0 | 6.4 | 0.00 | 0.03 | 0.03 | 86 | 1008.3 |
| 20260508234535 | 24 | 205 | 0.0 | 6.4 | 0.00 | 0.03 | 0.03 | 85 | 1008.2 |
| 20260508234020 | 24 | 22 | 1.6 | 8.0 | 0.00 | 0.03 | 0.03 | 86 | 1008.2 |
| 20260508233519 | 24 | 0 | 0.0 | 8.0 | 0.00 | 0.03 | 0.03 | 85 | 1008.2 |
| 20260508233036 | 24 | 64 | 0.0 | 8.0 | 0.00 | 0.03 | 0.03 | 85 | 1008.2 |
| 20260508232519 | 24 | 199 | 1.6 | 6.4 | 0.00 | 0.03 | 0.03 | 85 | 1008.2 |
| 20260508232019 | 25 | 183 | 1.6 | 6.4 | 0.00 | 0.03 | 0.03 | 85 | 1008.2 |
| 20260508231539 | 25 | 186 | 1.6 | 8.0 | 0.00 | 0.03 | 0.03 | 84 | 1008.1 |
| 20260508231017 | 25 | 163 | 1.6 | 8.0 | 0.00 | 0.03 | 0.03 | 84 | 1008.1 |
| 20260508230518 | 25 | 175 | 1.6 | 6.4 | 0.00 | 0.03 | 0.03 | 84 | 1008.2 |
| 20260508230034 | 25 | 207 | 1.6 | 4.8 | 0.00 | 0.03 | 0.03 | 84 | 1008.1 |
| 20260508225521 | 25 | 167 | 1.6 | 8.0 | 0.00 | 0.03 | 0.03 | 84 | 1008.1 |
| 20260508225018 | 25 | 0 | 1.6 | 8.0 | 0.00 | 0.03 | 0.03 | 83 | 1008.1 |